Flag for Germany Weather past 2 weeks in Gladbeck, North Rhine-Westphalia, Germany

Now
41 °F

Passing clouds.


Feels Like: 38 °F
Forecast: 38 / 46 °F
Wind: 5 mph from West

Location: Duesseldorf

Current Time: Dec 20, 2014 at 11:46:11 PM

Latest Report: Dec 20, 2014 at 11:00 PM


Visibility: 16 mi

Pressure: 30.32 "Hg

Humidity: 84%

Dew point: 37 °F

Location of GladbeckLocation

Historic Weather in Gladbeck — Graph

°F

Gladbeck temperature yesterday

Maximum temperature yesterday: 54 °F (at 12:00 AM)
Minimum temperature yesterday: 42 °F (at 11:00 PM)
Average temperature yesterday: 50 °F

Past Weeks' High & Low Weather Summary

 TemperatureHumidityPressure
High55 °F (Dec 18, 7:00 PM)100% (Dec 14, 6:00 AM)30.39 "Hg (Dec 14, 6:00 AM)
Low30 °F (Dec 14, 6:00 AM)65% (Dec 7, 3:00 PM)29.41 "Hg (Dec 12, 1:00 PM)
Average42 °F87%29.97 "Hg
* Reported Dec 5 9:00 PM — Dec 20 9:00 PM, Gladbeck, Weather by CustomWeather, © 2014

Note: Actual official high and low records may vary slightly from our data, if they occured in-between our weather recording intervals... More about our weather records

Advertising

Gladbeck weather history for previous 24 hours

 ConditionsComfort  
Time TempWeatherWind HumidityBarometerVisibility
9:00 PM
Dec 20
43 °FSprinkles. Overcast.5 mph80%30.27 "Hg12 mi
8:00 PM43 °FPassing clouds.6 mph79%30.23 "Hg31 mi
7:00 PM43 °FPassing clouds.8 mph81%30.19 "Hg31 mi
6:00 PM44 °FSprinkles. Overcast.10 mph82%30.16 "Hg11 mi
5:00 PM46 °FSprinkles. Overcast.12 mph70%30.12 "Hg25 mi
4:00 PM46 °FOvercast.9 mph73%30.11 "Hg25 mi
3:00 PM44 °FLight rain. Overcast.8 mph81%30.09 "Hg14 mi
2:00 PM44 °FLight rain. Overcast.9 mph81%30.10 "Hg15 mi
1:00 PM45 °FLight rain. Overcast.10 mph77%30.11 "Hg14 mi
12:00 PM44 °FLight rain. Overcast.9 mph77%30.12 "Hg16 mi
11:00 AM44 °FOvercast.10 mph79%30.14 "Hg19 mi
9:00 AM41 °FOvercast.8 mph83%30.15 "Hg19 mi
8:00 AM41 °FPassing clouds.8 mph83%30.15 "Hg22 mi
7:00 AM39 °FClear.6 mph86%30.16 "Hg25 mi
6:00 AM41 °FClear.7 mph83%30.16 "Hg28 mi
5:00 AM40 °FClear.7 mph83%30.16 "Hg28 mi
3:00 AM41 °FClear.7 mph81%30.16 "Hg25 mi
2:00 AM41 °FClear.7 mph81%30.14 "Hg25 mi
1:00 AM41 °FClear.7 mph81%30.14 "Hg28 mi
12:00 AM41 °FClear.6 mph81%30.13 "Hg28 mi
11:00 PM
Dec 19
42 °FClear.6 mph80%30.11 "Hg28 mi
Weather by CustomWeather, © 2014

See weather overviewHow to use our weather pages